Location: Unspecified
(0.0000°N, 0.0000°E)
Time: 00:07:05
(UTC+00:00)

deb Explorer IX - Visible Passes

Search period start: 29 August 2016 00:00
Search period end: 08 September 2016 00:00
Orbit: 552 x 1127 km, 38.8° (Epoch: 27 August)

Date Brightness Start Highest point End Pass type
(mag) Time Alt. Az. Time Alt. Az. Time Alt. Az.
29 Aug ? 03:16:52 10° NNE 03:19:08 12° NNE 03:21:20 10° NE visible
29 Aug ? 05:00:52 10° NW 05:07:25 60° NE 05:12:59 10° ESE visible
30 Aug ? 03:00:36 13° NNE 03:01:35 13° NE 03:04:39 10° ENE visible
30 Aug ? 04:43:04 10° NW 04:49:48 67° NE 04:55:34 10° ESE visible
31 Aug ? 02:45:36 14° NE 02:45:36 14° NE 02:47:44 10° ENE visible
31 Aug ? 04:27:23 21° NW 04:32:11 74° NE 04:38:07 10° SE visible
01 Sep ? 02:30:29 10° ENE 02:30:29 10° ENE 02:30:40 10° ENE visible
01 Sep ? 04:12:16 45° NW 04:14:33 82° NE 04:20:39 10° SE visible
02 Sep ? 03:56:58 88° ESE 03:56:58 88° ESE 04:03:10 10° SE visible
03 Sep ? 03:41:29 45° SE 03:41:29 45° SE 03:45:38 10° SE visible
03 Sep ? 05:23:14 10° WSW 05:26:42 15° SW 05:30:02 10° S visible
04 Sep ? 03:25:48 24° SE 03:25:48 24° SE 03:28:05 10° SE visible
04 Sep ? 05:07:32 13° WSW 05:09:05 14° SW 05:12:12 10° S visible
05 Sep ? 03:09:56 13° SE 03:09:56 13° SE 03:10:30 10° SE visible
05 Sep ? 04:51:39 13° SW 04:51:39 13° SW 04:54:18 10° SSW visible
06 Sep ? 04:35:35 11° SSW 04:35:35 11° SSW 04:36:18 10° SSW visible
